Regional Weather Roundup
Issued by NWS

Home | Current Version | Previous Version | Graphics & Text | Print | Product List | Glossary On
Versions: 1 2 3 4 5 6 7 8 9 10 11 12 13 14 15 16 17 18 19 20 21 22 23 24 25 26 27 28 29 30 31 32 33 34 35 36 37 38 39 40 41 42 43 44 45 46 47 48 49 50
871
ASUS45 KABQ 050310
RWRNM
NEW MEXICO REGIONAL WEATHER ROUNDUP
NATIONAL WEATHER SERVICE ALBUQUERQUE NM
800 PM MST SUN DEC 04 2016

NOTE: "FAIR" MEANS FEW OR NO CLOUDS BELOW 12,000 FEET AGL WITH NO
       SIGNIFICANT WEATHER OR OBSTRUCTIONS TO VISION.

      THIS PRODUCT IS RELEASED AS TWO VERSIONS.  ONE VERSION NEAR
      THE TOP OF THE HOUR CONTAINING PRELIMINARY DATA FROM ALBUQUERQUE
      AND OTHER STATIONS.  A FINAL VERSION WITH ADDITIONAL DATA IS
      ISSUED ABOUT 10 MINUTES AFTER THE HOUR.

NMZ501-503-504-510>518-050400-
NORTHWEST PLATEAU/NORTHCENTRAL MOUNTAINS

CITY           SKY/WX    TMP DP  RH WIND       PRES   REMARKS
FARMINGTON     FAIR      26  20  77 NE3       30.08S
LOS ALAMOS     FAIR      36  16  44 W5        30.07S WCI  32
SANTA FE       FAIR      32  14  47 NE3       30.05S
TAOS           FAIR      21  10  63 E3        30.05F
ANGEL FIRE     FAIR      22   8  54 CALM      30.06S

$$
NMZ402-403-502-505>509-050400-
WESTCENTRAL MOUNTAINS/SOUTHWEST MOUNTAINS

CITY           SKY/WX    TMP DP  RH WIND       PRES   REMARKS
GALLUP         FAIR      25  19  78 SE3       30.11R
GRANTS         FAIR      26  17  68 W5        30.10F WCI  20
SILVER CITY    FAIR      31  28  87 N3        30.07R

$$
NMZ407-409-411-412-050400-
SOUTHERN DESERTS

CITY           SKY/WX    TMP DP  RH WIND       PRES   REMARKS
DEMING         FAIR      38  29  70 W6        30.06R WCI  33
LAS CRUCES     FAIR      38  23  55 SW7       30.07R WCI  32
HOLLOMAN AFB   FAIR      41  27  57 S9        30.08R
T OR C         FAIR      38  14  37 NW8       30.04R WCI  32

$$
NMZ519>523-050400-
CENTRAL VALLEYS/CENTRAL HIGHLANDS

CITY           SKY/WX    TMP DP  RH WIND       PRES   REMARKS
ALBUQUERQUE    FAIR      40  14  34 NW5       30.07R
DOUBLE EAGLE   CLEAR     28  14  54 NW5       30.08R WCI  23
MORIARTY ARPT  FAIR      21  10  60 N6        30.05F WCI  14
CLINES CORNERS FAIR      28  12  51 NW17      30.03F WCI  16
BELEN          FAIR      32  17  55 W7        30.06F WCI  25
SOCORRO        FAIR      33  17  50 W6        30.05F WCI  28

$$
NMZ524>526-539-540-050400-
SOUTHCENTRAL MOUNTAINS

CITY           SKY/WX    TMP DP  RH WIND       PRES   REMARKS
RUIDOSO        FAIR      34  19  55 SE5       30.07R WCI  30

$$
NMZ527>531-050400-
NORTHEAST HIGHLANDS/NORTHEAST PLAINS

CITY           SKY/WX    TMP DP  RH WIND       PRES   REMARKS
LAS VEGAS      FAIR      28  12  51 SW5       29.97F WCI  23
RATON          FAIR      26  16  65 VRB3      29.95F
CLAYTON        FAIR      34  25  69 SW15      29.92F WCI  24

$$
NMZ532>537-050400-
EASTCENTRAL PLAINS

CITY           SKY/WX    TMP DP  RH WIND       PRES   REMARKS
TUCUMCARI      FAIR      33  23  66 SW10      29.97F WCI  25
CANNON AFB     FAIR      35  31  87 S3        30.01F
CLOVIS AIRPORT FAIR      30  21  69 S6        30.01F WCI  24

$$
NMZ028-029-538-050400-
SOUTHEAST PLAINS

CITY           SKY/WX    TMP DP  RH WIND       PRES   REMARKS
ROSWELL        FAIR      33  29  85 SW9       30.05R WCI  25
ARTESIA        FAIR      34  34 100 W8        30.06F WCI  27
CARLSBAD       FAIR      34  34 100 W3        30.05F
HOBBS          FAIR      36  36 100 W7        30.06F WCI  30


$$




USA.gov is the U.S. government's official web portal to all federal, state and local government web resources and services.